YUNHAI 2-1B

导读 | 豆包AI

YUNHAI 2-1B是中国于2018年12月29日08:00发射的云海系列卫星,属于中国气象局和上海航天技术研究院主导的云海二号卫星星座组网卫星。主要用于开展空间环境探测,探测大气海洋物理要素,获取空间环境参数,为气象预报、空间天气监测等领域提供数据支撑。

Basic Information
目录编号:
43910
目录名称:
YUNHAI 2-1B
国际标识:
2018-112B
轨道中心:
EARTH
卫星名称:
YUNHAI 2-1B
卫星全名:
--
卫星状态:
在轨 (已飞行2622 天)
发射日期:
2018-12-29 UTC
国别 :
中国 (CN)
星等 :
--
Orbit Information
数据来源 国际轨道数据 AOE轨道数据
星历时间 2026-03-04T11:45:00+0800
5小时前
查看轨道信息
2026-03-04T07:00:00+0800
10小时前
查看轨道信息
半长轴 7173.328km 7173.334km
偏心率 0.0005053 0.0004804
轨道倾角 50.010° 50.010°
近地点辐角 211.723° 211.412°
升交点赤经 193.668° 194.509°
平近点角 148.338° 209.795°
近地点 791.566km 791.75km
远地点 798.816km 798.644km
周期 100.772分钟 100.772分钟
每日圈数 14.289657 14.289637
Detailed Information
使用方式:
暂无
2D Orbit Map
3D Orbit Map
Orbit Altitude Analysis Chart
Orbit Inclination Analysis Chart
Orbit Comprehensive Analysis Chart
View Comprehensive Chart